Date,TemperatureHighF,TemperatureAvgF,TemperatureLowF,DewpointHighF,DewpointAvgF,DewpointLowF,HumidityHigh,HumidityAvg,HumidityLow,PressureMaxIn,PressureMinIn,WindSpeedMaxMPH,WindSpeedAvgMPH,GustSpeedMaxMPH,PrecipitationSumIn
2013-2-1,36,29,21,27,23,17,91,78,60,30.41,30.24,12,3,25,0.04
2013-2-2,40,25,16,22,17,11,91,74,30,30.49,30.35,5,1,12,0.04
2013-2-3,40,28,22,21,17,15,81,66,39,30.35,30.13,5,1,13,0.04
2013-2-4,41,28,18,21,17,13,84,65,39,30.20,30.14,7,2,15,0.04
2013-2-5,44,31,21,25,20,14,77,64,42,30.17,29.92,2,0,4,0.00
2013-2-6,38,33,18,24,21,13,81,61,49,30.15,29.90,8,1,15,0.00
2013-2-7,40,23,12,19,13,7,84,68,34,30.17,29.90,1,0,12,0.00
2013-2-8,38,28,22,26,20,15,91,75,51,29.92,29.62,5,1,12,0.00
2013-2-9,24,22,18,22,19,16,100,89,85,29.76,29.60,7,1,16,0.00
2013-2-10,25,19,13,19,15,10,90,87,78,29.93,29.76,4,1,11,0.05
2013-2-11,24,14,8,16,10,5,89,83,70,30.14,29.92,4,0,13,0.06
2013-2-12,24,17,8,17,12,5,88,82,70,30.28,30.14,5,1,11,0.02
2013-2-13,31,26,20,24,21,16,87,82,73,30.29,30.20,6,1,14,0.03
2013-2-14,33,26,19,25,22,15,89,82,71,30.38,30.19,5,1,13,0.04
2013-2-15,35,27,19,25,20,16,86,77,60,30.48,30.37,5,1,12,0.02
2013-2-16,28,19,16,20,15,13,89,86,73,30.45,30.36,1,0,2,0.02
2013-2-18,31,25,18,18,14,8,69,62,56,30.06,29.93,1,0,7,0.00
2013-2-19,43,28,17,21,12,6,66,52,28,29.93,29.63,5,1,16,0.00
2013-2-23,22,17,15,20,15,13,92,91,90,29.89,29.72,13,6,25,0.00
2013-2-24,28,17,10,23,14,6,91,86,78,30.18,29.88,7,2,11,0.09
2013-2-25,32,17,5,19,10,2,89,77,55,30.18,29.94,7,2,11,0.02
2013-2-26,24,18,9,18,14,6,89,85,75,30.24,29.95,8,3,15,0.01
2013-2-27,28,14,4,14,7,1,90,77,52,30.37,30.24,5,1,13,0.01
2013-2-28,35,23,10,22,14,7,88,71,47,30.45,30.33,5,1,13,0.00